TimeCDT,TemperatureF,Dew PointF,Humidity,Sea Level PressureIn,VisibilityMPH,Wind Direction,Wind SpeedMPH,Gust SpeedMPH,PrecipitationIn,Events,Conditions,WindDirDegrees,DateUTC
12:15 AM,68.2,60.1,75,29.85,10.0,South,8.1,-,N/A,,Clear,180,2013-05-16 05:15:00
12:35 AM,67.3,59.9,77,29.85,10.0,SSW,8.1,-,N/A,,Clear,200,2013-05-16 05:35:00
12:55 AM,67.1,60.1,78,29.85,10.0,SSW,8.1,-,N/A,,Clear,210,2013-05-16 05:55:00
1:15 AM,66.9,59.9,78,29.85,10.0,Calm,Calm,-,N/A,,Clear,0,2013-05-16 06:15:00
1:35 AM,65.7,59.2,80,29.85,10.0,Calm,Calm,-,N/A,,Clear,0,2013-05-16 06:35:00
1:55 AM,65.7,58.6,78,29.85,10.0,SSW,4.6,-,N/A,,Clear,210,2013-05-16 06:55:00
2:15 AM,64.2,58.1,80,29.85,10.0,South,3.5,-,N/A,,Clear,180,2013-05-16 07:15:00
2:35 AM,63.9,58.1,81,29.85,10.0,Calm,Calm,-,N/A,,Clear,0,2013-05-16 07:35:00
2:55 AM,63.5,57.6,81,29.85,10.0,Calm,Calm,-,N/A,,Clear,0,2013-05-16 07:55:00
3:15 AM,61.0,56.5,85,29.85,10.0,Calm,Calm,-,N/A,,Clear,0,2013-05-16 08:15:00
3:35 AM,60.1,55.8,86,29.85,10.0,East,4.6,-,N/A,,Clear,90,2013-05-16 08:35:00
3:55 AM,58.5,55.2,89,29.86,7.0,Calm,Calm,-,N/A,,Clear,0,2013-05-16 08:55:00
4:15 AM,58.6,55.0,88,29.86,10.0,Calm,Calm,-,N/A,,Clear,0,2013-05-16 09:15:00
4:35 AM,58.5,55.4,90,29.87,10.0,Calm,Calm,-,N/A,,Clear,0,2013-05-16 09:35:00
4:55 AM,59.0,55.9,90,29.87,7.0,Calm,Calm,-,N/A,,Mostly Cloudy,0,2013-05-16 09:55:00
5:15 AM,61.3,58.1,89,29.86,7.0,Calm,Calm,-,N/A,,Overcast,0,2013-05-16 10:15:00
5:35 AM,62.1,58.6,89,29.86,7.0,Calm,Calm,-,N/A,,Overcast,0,2013-05-16 10:35:00
5:55 AM,62.1,58.6,89,29.87,7.0,Calm,Calm,-,N/A,,Overcast,0,2013-05-16 10:55:00
6:15 AM,63.7,59.4,86,29.87,10.0,Calm,Calm,-,N/A,,Overcast,0,2013-05-16 11:15:00
6:35 AM,64.2,59.4,84,29.87,10.0,Calm,Calm,-,N/A,,Overcast,0,2013-05-16 11:35:00
6:55 AM,64.4,59.5,84,29.87,7.0,Calm,Calm,-,N/A,,Overcast,0,2013-05-16 11:55:00
7:15 AM,64.4,59.7,85,29.88,10.0,Calm,Calm,-,N/A,,Overcast,0,2013-05-16 12:15:00
7:35 AM,64.9,60.1,84,29.88,10.0,Calm,Calm,-,N/A,,Overcast,0,2013-05-16 12:35:00
7:55 AM,65.5,60.4,84,29.88,7.0,South,4.6,-,N/A,,Overcast,180,2013-05-16 12:55:00
8:15 AM,65.5,60.8,85,29.88,7.0,SSW,4.6,-,N/A,,Overcast,210,2013-05-16 13:15:00
8:35 AM,66.2,61.3,84,29.88,7.0,South,8.1,-,N/A,,Overcast,190,2013-05-16 13:35:00
8:55 AM,65.7,60.8,84,29.88,5.0,SSE,5.8,-,N/A,,Haze,160,2013-05-16 13:55:00
9:15 AM,65.8,61.3,85,29.88,4.0,South,6.9,-,N/A,,Haze,180,2013-05-16 14:15:00
9:35 AM,66.4,61.5,84,29.88,5.0,South,3.5,-,N/A,,Overcast,180,2013-05-16 14:35:00
9:55 AM,67.5,61.9,82,29.88,7.0,SSW,4.6,-,N/A,,Overcast,200,2013-05-16 14:55:00
10:15 AM,68.9,61.7,78,29.88,10.0,SSE,9.2,-,N/A,,Overcast,160,2013-05-16 15:15:00
10:35 AM,69.6,61.9,76,29.89,10.0,South,6.9,-,N/A,,Overcast,190,2013-05-16 15:35:00
10:55 AM,70.0,62.2,76,29.89,7.0,South,8.1,-,N/A,,Overcast,170,2013-05-16 15:55:00
11:15 AM,70.7,62.2,75,29.90,7.0,SSW,10.4,-,N/A,,Overcast,200,2013-05-16 16:15:00
11:35 AM,70.9,62.2,74,29.89,7.0,South,9.2,-,N/A,,Overcast,190,2013-05-16 16:35:00
11:55 AM,71.2,61.9,72,29.89,10.0,SSW,8.1,-,N/A,,Overcast,210,2013-05-16 16:55:00
12:15 PM,73.0,61.7,67,29.88,10.0,South,8.1,-,N/A,,Mostly Cloudy,170,2013-05-16 17:15:00
12:35 PM,74.7,61.0,62,29.87,10.0,SSE,9.2,-,N/A,,Scattered Clouds,150,2013-05-16 17:35:00
12:55 PM,75.7,60.6,59,29.87,10.0,South,9.2,-,N/A,,Scattered Clouds,180,2013-05-16 17:55:00
1:15 PM,77.5,60.3,55,29.86,10.0,South,9.2,18.4,N/A,,Clear,170,2013-05-16 18:15:00
1:35 PM,76.8,60.1,56,29.86,10.0,South,6.9,-,N/A,,Scattered Clouds,170,2013-05-16 18:35:00
2:15 PM,79.2,59.2,50,29.85,10.0,South,12.7,16.1,N/A,,Clear,180,2013-05-16 19:15:00
2:35 PM,79.7,59.0,49,29.84,10.0,SSE,13.8,18.4,N/A,,Clear,150,2013-05-16 19:35:00
2:55 PM,79.9,59.0,49,29.84,10.0,SSE,12.7,17.3,N/A,,Scattered Clouds,150,2013-05-16 19:55:00
3:15 PM,79.7,57.9,47,29.83,10.0,South,12.7,21.9,N/A,,Scattered Clouds,170,2013-05-16 20:15:00
3:35 PM,79.9,57.7,47,29.83,10.0,SSE,12.7,17.3,N/A,,Clear,160,2013-05-16 20:35:00
3:55 PM,80.4,57.7,46,29.83,10.0,SSE,11.5,-,N/A,,Scattered Clouds,160,2013-05-16 20:55:00
4:15 PM,80.1,57.4,46,29.82,10.0,SSE,13.8,18.4,N/A,,Scattered Clouds,160,2013-05-16 21:15:00
4:35 PM,80.2,57.0,45,29.82,10.0,SSE,13.8,20.7,N/A,,Scattered Clouds,160,2013-05-16 21:35:00
5:15 PM,81.0,57.6,45,29.81,10.0,South,13.8,18.4,N/A,,Clear,180,2013-05-16 22:15:00
5:35 PM,80.2,57.4,45,29.80,10.0,SSE,13.8,-,N/A,,Clear,160,2013-05-16 22:35:00
5:55 PM,79.9,56.8,45,29.80,10.0,South,12.7,18.4,N/A,,Clear,170,2013-05-16 22:55:00
6:15 PM,80.1,56.8,45,29.79,10.0,South,10.4,-,N/A,,Clear,180,2013-05-16 23:15:00
6:35 PM,80.1,56.3,44,29.79,10.0,SSE,10.4,-,N/A,,Clear,160,2013-05-16 23:35:00
6:55 PM,79.7,56.5,45,29.79,10.0,SSE,10.4,-,N/A,,Clear,160,2013-05-16 23:55:00
7:15 PM,77.4,56.3,48,29.79,10.0,SSE,10.4,-,N/A,,Clear,160,2013-05-17 00:15:00
7:35 PM,76.6,57.0,51,29.80,10.0,SSW,5.8,-,N/A,,Clear,200,2013-05-17 00:35:00
7:55 PM,75.6,57.6,53,29.82,10.0,WSW,5.8,-,N/A,,Clear,240,2013-05-17 00:55:00
8:15 PM,73.6,57.9,58,29.82,10.0,SW,4.6,-,N/A,,Clear,220,2013-05-17 01:15:00
8:35 PM,72.5,57.7,60,29.81,10.0,South,3.5,-,N/A,,Clear,190,2013-05-17 01:35:00
8:55 PM,70.7,58.1,64,29.82,10.0,South,3.5,-,N/A,,Clear,170,2013-05-17 01:55:00
9:15 PM,69.8,57.9,66,29.82,10.0,SSW,4.6,-,N/A,,Clear,200,2013-05-17 02:15:00
9:35 PM,68.5,58.1,69,29.83,10.0,South,4.6,-,N/A,,Clear,190,2013-05-17 02:35:00
9:55 PM,69.6,57.7,66,29.84,10.0,South,6.9,-,N/A,,Scattered Clouds,190,2013-05-17 02:55:00
10:15 PM,68.9,58.1,68,29.84,10.0,South,5.8,-,N/A,,Scattered Clouds,190,2013-05-17 03:15:00
10:35 PM,67.8,58.3,71,29.85,10.0,SSW,4.6,-,N/A,,Clear,200,2013-05-17 03:35:00
10:55 PM,67.6,58.5,72,29.85,10.0,South,4.6,-,N/A,,Clear,170,2013-05-17 03:55:00
11:15 PM,67.6,58.6,73,29.85,10.0,South,5.8,-,N/A,,Clear,180,2013-05-17 04:15:00
11:35 PM,67.6,58.6,73,29.84,10.0,South,6.9,-,N/A,,Clear,180,2013-05-17 04:35:00
11:55 PM,68.9,59.0,71,29.83,10.0,South,9.2,-,N/A,,Clear,170,2013-05-17 04:55:00